Regional Weather Roundup
Issued by NWS

Home | Current Version | Previous Version | Graphics & Text | Print | Product List | Glossary On
Versions: 1 2 3 4 5 6 7 8 9 10 11 12 13 14 15 16 17 18 19 20 21 22 23 24 25 26 27 28 29 30 31 32 33 34 35 36 37 38 39 40 41 42 43 44 45 46 47 48 49 50
000
ASUS43 KMKX 241421
RWRWI

WISCONSIN REGIONAL WEATHER ROUNDUP
NATIONAL WEATHER SERVICE MILWAUKEE/SULLIVAN WI
900 AM CDT WED AUG 24 2016

NOTE: "FAIR" INDICATES FEW OR NO CLOUDS BELOW 12,000 FEET WITH NO
SIGNIFICANT WEATHER AND/OR OBSTRUCTIONS TO VISIBILITY.

WIZ001-002-006>008-014>016-023>028-241500-
NORTHWEST WISCONSIN

CITY           SKY/WX    TMP DP  RH WIND       PRES   REMARKS
SUPERIOR ARPT  CLOUDY    68  66  93 SW6       29.81R
ASHLAND        CLOUDY    71  66  84 SW3       29.82S
HAYWARD        LGT RAIN  67  65  93 CALM      29.84R
SIREN          CLOUDY    68  66  95 W5        29.84S
CUMBERLAND     CLOUDY    66  64  94 W8        29.85R FOG
RICE LAKE      CLOUDY    68  65  90 W8        29.86R
CHETEK         NOT AVBL
LADYSMITH      CLOUDY    67  66  96 SW6       29.85S
EAU CLAIRE     CLOUDY    68  67  96 SW5       29.84R
MENOMONIE      CLOUDY    71  68  93 SW6       29.86R
NEW RICHMOND   CLOUDY    69  68  97 W7        29.86S
OSCEOLA        CLOUDY    69  69 100 W3        29.88R
$$

WIZ003>005-009-010-017-018-241500-
NORTH CENTRAL WISCONSIN

CITY           SKY/WX    TMP DP  RH WIND       PRES   REMARKS
MANITOWISH WTR NOT AVBL
ARBOR VITAE    DRIZZLE   66  64  96 S6        29.84
WOODRUFF       DRIZZLE   66  64  96 S6        29.84
RHINELANDER    LGT RAIN  67  67 100 SW10      29.86R FOG
EAGLE RIVER    HVY RAIN  65  65 100 S3        29.85R
LAND O LAKES   RAIN      66  65  99 CALM      29.86S
PHILLIPS       RAIN      66  66 100 SW7       29.83S
TOMAHAWK       DRIZZLE   65  64  95 CALM      29.85S
MEDFORD        CLOUDY    65  65 100 S9        29.86R FOG
MERRILL        CLOUDY    67  67 100 S7        29.86S
$$

WIZ029-030-035-036-043>047-241500-
CENTRAL WISCONSIN

CITY           SKY/WX    TMP DP  RH WIND       PRES   REMARKS
WAUSAU         RAIN      67  65  93 SW9       29.85S FOG
MOSINEE        CLOUDY    66  66 100 S9        29.88R
MARSHFIELD     LGT RAIN  67  64  90 S12       29.87R
STEVENS POINT  LGT RAIN  65  65  98 S10       29.88S
WAUPACA        CLOUDY    70  69  98 S8        29.88S
WAUTOMA        CLOUDY    68  66  93 S6        29.89F
WISC RAPIDS    LGT RAIN  68  67  96 SW6       29.89S
CAMP DOUGLAS   CLOUDY    68  66  94 VRB6      29.88S
$$

WIZ011>013-019>022-031-037>040-048>050-241500-
NORTHEAST WISCONSIN

CITY           SKY/WX    TMP DP  RH WIND       PRES   REMARKS
ANTIGO         CLOUDY    66  66 100 S8        29.87S
SHAWANO        CLOUDY    71  69  95 SW6       29.86S
OCONTO         NOT AVBL
STURGEON BAY   PTSUNNY   69  68  96 SW10      29.87S
GREEN BAY      CLOUDY    71  71 100 SW9       29.87S
MANITOWOC      LGT RAIN  71  68  90 MISG      29.89S
APPLETON       CLOUDY    70  70 100 SW12G18   29.88S
CLINTONVILLE   CLOUDY    70  68  94 SW9       29.86F
OSHKOSH        CLOUDY    68  66  93 S10       29.88F
$$

WIZ032>034-041-042-053>061-241500-
SOUTHWEST WISCONSIN

CITY           SKY/WX    TMP DP  RH WIND       PRES   REMARKS
LA CROSSE      CLOUDY    71  32  23 S10       29.86S
SPARTA         CLOUDY    67  65  94 S5        29.89R
VIROQUA        CLOUDY    67  67 100 S10       29.91S
BOSCOBEL       CLOUDY    70  67  90 VRB5      29.91S
PRAIRIE DU CHI CLOUDY    68  67  96 E3        29.89F
PLATTEVILLE    CLOUDY    69  69  99 SE6       29.94R
$$

WIZ056-057-062-063-064-067-068-241500-
SOUTH CENTRAL WISCONSIN

CITY           SKY/WX    TMP DP  RH WIND       PRES   REMARKS
REEDSBURG      NOT AVBL
BARABOO/DELLS  CLOUDY    67  64  91 SW9       29.90S
LONE ROCK      CLOUDY    69  66  90 CALM      29.92R
MINERAL POINT  CLOUDY    68  68 100 SE8       29.94R
MADISON        CLOUDY    68  66  93 S8        29.91F
MIDDLETON      CLOUDY    70  68  95 S9        29.92S
WATERTOWN      CLOUDY    67  67 100 SE5       29.90F
MONROE         MOSUNNY   70  66  88 S15G21    29.93F
JANESVILLE     CLOUDY    68  66  94 SE15      29.92F
$$

WIZ051-052-058>065-066-070>072-241500-
SOUTHEAST WISCONSIN

CITY           SKY/WX    TMP DP  RH WIND       PRES   REMARKS
MILWAUKEE      LGT RAIN  71  67  87 SW8       29.96F
WAUKESHA       PTSUNNY   66  64  94 SE6       29.92F
MILWAUKEE/TIMM RAIN      68  64  88 W9G20     29.96F
RACINE         RAIN      71  68  90 S10       29.99F FOG
BURLINGTON     LGT RAIN  66  65  96 S8        29.96F
KENOSHA        LGT RAIN  70  68  93 SW8       29.97F FOG
FOND DU LAC    CLOUDY    69  66  90 S14       29.89F
SHEBOYGAN      LGT RAIN  71  67  87 SW13      29.91S
WEST BEND      LGT RAIN  66  64  94 S7        29.91F
JUNEAU         DRIZZLE   67  65  96 SE15      29.88F
$$

LSZ147-162-241500-
LAKE SUPERIOR

STATION/POSITION TIME  TEMP    WIND        PRES    WAVE
                       AIR SEA DIR/SP/G            HT/PER
                 (UTC) (F)     (DEG/KT/KT) (MB)    (FT/S)
W MID LAKE BUOY  1350   68 67  170/  6/  6 1008.5S   1
DEVILS ISLAND    1400   70     210/  1/  2 1009.0F
PORT WING        1300   67     160/  3/  4 1009.5S
SAXON HARBOR     1340   69     200/  3/  5 1009.1S
$$

LMZ867-665-643>646-241500-
LAKE MICHIGAN

STATION/POSITION TIME  TEMP    WIND        PRES    WAVE
                       AIR SEA DIR/SP/G            HT/PER
                 (UTC) (F)     (DEG/KT/KT) (MB)    (FT/S)
CHAMBERS ISLAND  1300   68     160/  4/  7 1011.2F
S GREEN BAY BUOY 1400   71 73  190/ 14/ 16 1010.3F
N MID LAKE BUOY  1350   68 70  160/ 10/ 14 1011.1F   4/ 6
NORTHPORT PIER   1300   69     150/  6/ 12 1011.9F
SISTER BAY       1307   68     170/ 12/ 15   N/A
KEWAUNEE LAKESHO 1300   64     180/ 12/ 16 1011.3S
SHEBOYGAN LAKESH 1400   68     200/ 13/ 15 1012.0F
PORT WASHINGTON  1400   69     240/  5/ 22 1013.9F
ATWATER BUOY     1400   62     180/  6/  8   N/A
MILWAUKEE LAKESH 1410   68     160/ 15/ 16   N/A
S MID LAKE BUOY  1350   74 75  200/ 23/ 29 1015.0R   5/ 5
KENOSHA   LAKESH 1400   71     260/ 12/ 19 1015.6S
$$

TC  - TEMPERATURE IN CELSIUS
VSB - VISIBILITY IN STATUTE MILES
WCI - WIND CHILL INDEX
HX  - HEAT INDEX





USA.gov is the U.S. government's official web portal to all federal, state and local government web resources and services.